Location: Congrier
(47.8099°N, 1.1170°W)
Time: 00:48:49
(UTC+00:00)

Lacrosse 5 - Pass Details

Date: 28 January 2023
Orbit: 714 x 724 km, 57.0° (Epoch: 09 March)

Event Time Altitude Azimuth Distance (km) Brightness Sun altitude
Rises 20:18:00 0° 226° (SW) 3,126 5.6 -33.4°
Reaches altitude 10° 20:20:22 10° 225° (SW) 2,209 4.7 -33.8°
Enters shadow 20:21:35 18° 223° (SW) 1,752 4.1 -34.0°
